Flag for Romania Weather past 2 weeks in Iasi, Romania

Now
66 °F

Passing clouds.


Feels Like: 66 °F
Forecast: 66 / 83 °F
Wind: 2 mph from North

Location: Iasi Airport

Current Time: Sep 3, 2014 at 3:19:23 AM

Latest Report: Sep 3, 2014 at 2:00 AM


Visibility: N/A

Pressure: 29.95 "Hg

Humidity: 78%

Dew point: 59 °F

Location of IasiLocation

Historic Weather in Iasi — Graph

°F

Iasi temperature yesterday

Maximum temperature yesterday: 88 °F (at 4:00 PM)
Minimum temperature yesterday: 50 °F (at 5:30 AM)
Average temperature yesterday: 70 °F

Past Weeks' High & Low Weather Summary

 TemperatureHumidityPressure
High88 °F (Sep 2, 4:00 PM)100% (Aug 21, 8:00 PM)30.18 "Hg (Aug 21, 8:00 PM)
Low50 °F (Aug 29, 4:00 AM)25% (Sep 1, 5:00 PM)29.71 "Hg (Aug 27, 5:30 PM)
Average69 °F64%29.98 "Hg
* Reported Aug 19 2:00 AM — Sep 3 2:00 AM, Iasi, Weather by CustomWeather, © 2014

Note: Actual official high and low records may vary slightly from our data, if they occured in-between our weather recording intervals... More about our weather records

Advertising

Iasi weather history for previous 24 hours

 ConditionsComfort  
Time TempWeatherWind HumidityBarometerVisibility
2:00 AM
Sep 3
66 °FPassing clouds.2 mph78%29.95 "HgN/A
1:00 AM68 °FClear.No wind69%29.95 "Hg10 mi
12:00 AM70 °FClear.2 mph69%29.95 "Hg10 mi
11:00 PM
Sep 2
72 °FPassing clouds.2 mph61%29.92 "HgN/A
10:00 PM72 °FClear.5 mph57%29.92 "Hg10 mi
9:00 PM75 °FClear.2 mph50%29.89 "Hg10 mi
8:30 PM72 °FSunny.5 mph61%29.89 "Hg10 mi
8:00 PM77 °FSunny.7 mph44%29.89 "Hg10 mi
7:30 PM81 °FSunny.7 mph39%29.86 "Hg10 mi
6:30 PM84 °FSunny.5 mph35%29.86 "Hg10 mi
6:00 PM86 °FSunny.7 mph31%29.86 "Hg10 mi
5:30 PM86 °FPassing clouds.9 mph31%29.86 "HgN/A
5:00 PM88 °FPassing clouds.7 mph27%29.86 "HgN/A
4:30 PM88 °FPassing clouds.7 mph27%29.86 "HgN/A
4:00 PM88 °FPassing clouds.7 mph27%29.89 "HgN/A
3:30 PM86 °FPassing clouds.12 mph29%29.89 "HgN/A
3:00 PM86 °FPassing clouds.7 mph33%29.89 "HgN/A
2:30 PM86 °FSunny.7 mph33%29.89 "Hg10 mi
2:00 PM86 °FPassing clouds.5 mph33%29.89 "HgN/A
1:30 PM84 °FPassing clouds.5 mph37%29.89 "HgN/A
1:00 PM82 °FPassing clouds.5 mph40%29.92 "HgN/A
12:30 PM81 °FSunny.5 mph42%29.92 "Hg10 mi
12:00 PM77 °FPassing clouds.5 mph51%29.92 "HgN/A
11:30 AM73 °FPassing clouds.5 mph53%29.92 "HgN/A
11:00 AM73 °FPassing clouds.5 mph53%29.92 "HgN/A
10:30 AM70 °FPassing clouds.5 mph57%29.92 "HgN/A
10:00 AM66 °FPassing clouds.5 mph64%29.92 "HgN/A
9:30 AM63 °FPassing clouds.5 mph73%29.92 "HgN/A
9:00 AM61 °FPassing clouds.5 mph77%29.92 "HgN/A
8:30 AM59 °FPassing clouds.5 mph82%29.92 "HgN/A
8:00 AM55 °FSunny.2 mph94%29.92 "Hg10 mi
7:30 AM54 °FSunny.5 mph94%29.92 "Hg10 mi
7:00 AM52 °FClear.5 mph100%29.92 "Hg10 mi
6:30 AM50 °FClear.5 mph100%29.92 "Hg10 mi
6:00 AM50 °FClear.5 mph100%29.89 "Hg10 mi
5:30 AM50 °FClear.5 mph100%29.89 "Hg10 mi
5:00 AM52 °FClear.5 mph100%29.89 "Hg10 mi
4:00 AM54 °FClear.5 mph94%29.89 "Hg10 mi
3:00 AM55 °FClear.2 mph88%29.89 "Hg10 mi
Weather by CustomWeather, © 2014

See weather overviewHow to use our weather pages